#timestamp,LO_Frequency,Hit,StdDev 
1515243615.4,286047001.9,N
1515243635.3,286047001.8,N
1515243655.1,286047002.4,N
1515243675.9,286047002.1,N
1515243695.7,286047001.9,N
1515243715.5,286047002.8,N
1515243735.4,286046999.8,N
1515243755.2,286047002.6,N
1515243775.0,286047004.1,Y
1515243775.9,286047004.1,P
1515243795.8,286047001.9,N
1515243815.6,286047002.6,N
1515243835.5,286047002.1,N
1515243855.3,286047000.4,N
1515243875.1,286047002.3,N
1515243895.9,286047004.1,Y
1515243915.7,286047002.4,P
1515243935.6,286047002.5,P
1515243955.4,286047003.9,P
1515243975.2,286047000.3,N
1515243995.1,286047000.4,N
1515243996.0,286047000.4,N
1515244015.8,286046999.4,N
1515244035.7,286046999.4,N
1515244055.5,286046998.7,N
1515244075.3,286046999.3,N
1515244095.2,286046998.2,N
1515244115.0,286046998.9,N
1515244115.9,286046998.9,N
1515244135.7,286047000.1,N
1515244155.6,286046998.7,N
1515244175.4,286047000.8,N
1515244195.3,286046999.1,N
1515244215.1,286046997.4,N
1515244235.8,286046996.6,N
1515244255.7,286046996.7,N
1515244275.5,286046997.1,N
1515244295.4,286046999.6,N
1515244315.2,286046998.8,N
1515244335.0,286046999.0,N
1515244335.9,286046999.0,N
1515244355.8,286046998.2,N
1515244375.6,286046998.9,N
1515244395.5,286046996.7,N
1515244415.3,286046998.5,N
1515244435.1,286046999.2,N
1515244455.9,286046999.6,N
1515244475.7,286046996.8,N
1515244495.5,286046997.4,N
1515244515.4,286046997.0,N
1515244535.2,286046999.6,N
1515244555.1,286046997.0,N
1515244556.0,286046997.0,N
1515244575.8,286046999.6,N
1515244595.6,286046996.8,N
1515244615.5,286046998.0,N
1515244635.3,286046997.9,N
1515244655.2,286046995.1,Y
1515244675.9,286047001.2,P
1515244695.7,286047000.7,N
1515244715.6,286047000.4,N
1515244735.4,286047000.0,N
1515244755.2,286047002.7,N
1515244775.1,286046998.5,N
1515244776.0,286046998.5,N
1515244795.8,286046999.9,N
1515244815.7,286047002.3,N
1515244835.5,286047001.0,N
1515244855.3,286046998.4,N
1515244875.2,286047000.5,N
1515244895.0,286047000.3,N
1515244895.9,286047000.3,N
1515244915.8,286047000.9,N
1515244935.6,286046998.1,N
1515244955.4,286046998.4,N
1515244975.3,286047000.8,N
1515244995.1,286047000.2,N
1515245015.8,286047000.2,N
1515245035.7,286047002.7,N
1515245055.5,286046999.8,N
1515245075.4,286047002.4,N
1515245095.2,286047000.3,N
1515245115.0,286047001.2,N
1515245115.9,286047001.2,N
1515245135.8,286047000.9,N
1515245155.6,286046998.3,N
1515245175.4,286047001.2,N
1515245195.3,286046999.0,N
1515245215.1,286046999.3,N
1515245235.9,286046998.4,N
1515245255.7,286046997.2,N
1515245275.5,286046994.9,Y
1515245295.4,286046999.6,P
1515245315.2,286046999.5,N
1515245335.1,286046996.6,P
1515245336.0,286046996.6,N
1515245355.8,286046999.5,N
1515245375.6,286047000.8,N
1515245395.5,286046999.7,N
1515245415.3,286046999.7,N
1515245435.2,286046998.1,N
1515245455.9,286046997.4,N
1515245475.7,286046997.5,N
1515245495.6,286046995.4,Y
1515245515.4,286046997.9,P
1515245535.3,286046996.2,P
1515245555.1,286046997.6,N
1515245556.0,286046997.6,N
1515245575.8,286046997.5,Y
1515245595.7,286046998.2,P
1515245615.5,286046998.5,P
1515245635.3,286047000.8,N
1515245655.2,286047000.2,N
1515245675.0,286047002.0,N
1515245675.9,286047002.0,N
1515245695.8,286047002.0,N
1515245715.6,286047002.4,N
1515245735.4,286047001.0,N
1515245755.3,286046998.1,N
1515245775.1,286046998.2,N
1515245795.9,286046999.3,N
1515245815.7,286046998.7,N
1515245835.5,286046999.3,N
1515245855.4,286047000.7,N
1515245875.2,286047000.7,N
1515245895.0,286046998.6,N
1515245895.9,286046998.6,N
1515245915.8,286047000.0,N
1515245935.6,286047000.5,N
1515245955.5,286047001.1,N
1515245975.3,286046999.5,N
1515245995.1,286046997.1,N
1515246015.9,286046997.1,N
1515246035.7,286046996.5,N
1515246055.6,286046996.8,N
1515246075.4,286046996.5,N
1515246095.2,286046996.5,N
1515246115.1,286046998.3,N
1515246116.0,286046998.3,N
1515246135.8,286047000.9,N
1515246155.6,286047002.7,N
1515246175.5,286047000.0,N
1515246195.3,286047001.6,N
1515246215.2,286047000.0,N
1515246235.9,286047000.6,N
1515246255.7,286047002.3,N
1515246275.6,286047002.0,N
1515246295.4,286047001.9,N
1515246315.2,286047001.5,N
1515246335.1,286047001.6,N
1515246336.0,286047001.6,N
1515246355.8,286047001.3,N
1515246375.7,286047004.0,N
1515246395.5,286047003.9,N
1515246415.3,286047003.4,N
1515246435.2,286047000.1,N
1515246455.0,286047000.9,N
1515246455.9,286047000.9,N
1515246475.8,286047002.4,N
1515246495.6,286047000.3,N
1515246515.4,286047003.9,N
1515246535.3,286047000.2,N
1515246555.1,286047002.0,N
1515246575.8,286047002.6,N
1515246595.7,286047002.6,N
1515246615.5,286047002.7,N
1515246635.4,286047000.2,N
1515246655.2,286046998.3,N
1515246675.0,286046998.1,N
1515246675.9,286046998.1,N
1515246695.8,286047000.0,N
1515246715.6,286047002.6,N
1515246735.4,286047002.6,N
1515246755.3,286047001.0,N
1515246775.1,286046998.1,N
1515246795.9,286047002.0,N
1515246815.7,286047001.5,N
1515246835.5,286047001.3,N
1515246855.4,286047001.8,N
1515246875.2,286047000.3,N
1515246895.1,286047002.6,N
1515246896.0,286047002.6,N
1515246915.8,286047000.1,N
1515246935.6,286047002.3,N
1515246955.5,286046999.8,N
1515246975.3,286046998.5,N
1515246995.1,286047001.1,N
1515247015.9,286046998.2,N
1515247035.7,286047001.1,N
1515247055.6,286047002.6,N
1515247075.4,286047001.6,N
1515247095.2,286047003.4,N
1515247115.1,286047004.3,N
1515247116.0,286047004.3,N
1515247135.8,286047001.8,N
1515247155.7,286047001.8,N
1515247175.5,286047001.9,N
1515247195.3,286047001.7,N
